This is the latest recevied weather packets stored in our database for station/object KD8OZS. If no packets are shown the sender has not sent any weather packets the latest 10 day(s).
| Time | Temp. | Humidity | Pressure | Rain* | Wind** | Luminosity | Snow |
|---|---|---|---|---|---|---|---|
| 1788009838 | 18.89° C | 79% | 1016.7 hPa | 0 mm | - | 514 W/m² | - |
| 1788009537 | 18.33° C | 83% | 1016.7 hPa | 0 mm | - | 151 W/m² | - |
| 1788009232 | 18.33° C | 83% | 1016.8 hPa | 0 mm | - | 144 W/m² | - |
| 1788008926 | 16.67° C | 87% | 1016.7 hPa | 0 mm | - | 146 W/m² | - |
| 1788008622 | 16.11° C | 90% | 1016.7 hPa | 0 mm | - | 216 W/m² | - |
| 1788008320 | 15.56° C | 94% | 1016.7 hPa | 0 mm | - | 271 W/m² | - |
| 1788008017 | 15.56° C | 97% | 1016.7 hPa | 0 mm | - | 291 W/m² | - |
| 1788007716 | 15° C | 98% | 1016.6 hPa | 0 mm | - | 314 W/m² | - |
| 1788007412 | 14.44° C | 98% | 1016.8 hPa | 0 mm | - | 277 W/m² | - |
| 1788007111 | 13.33° C | 98% | 1016.4 hPa | 0 mm | - | 257 W/m² | - |
| 1788006810 | 13.33° C | 99% | 1016.5 hPa | 0 mm | - | 181 W/m² | - |
| 1788006505 | 13.33° C | 99% | 1016.3 hPa | 0 mm | - | 188 W/m² | - |
| 1788006200 | 13.33° C | 99% | 1016.3 hPa | 0 mm | - | 160 W/m² | - |
| 1788005899 | 12.78° C | 99% | 1016.3 hPa | 0 mm | - | 138 W/m² | - |
| 1788005594 | 12.78° C | 99% | 1016.3 hPa | 0 mm | - | 107 W/m² | - |
| 1788005288 | 12.22° C | 99% | 1016.4 hPa | 0 mm | - | 93 W/m² | - |
| 1788004987 | 11.67° C | 99% | 1016.1 hPa | 0 mm | - | 89 W/m² | - |
| 1788004685 | 11.11° C | 99% | 1016.1 hPa | 0 mm | - | 35 W/m² | - |
| 1788004380 | 11.11° C | 99% | 1016.2 hPa | 0 mm | - | 30 W/m² | - |
| 1788004074 | 10.56° C | 99% | 1016.1 hPa | 0 mm | - | 28 W/m² | - |
| 1788003773 | 10.56° C | 99% | 1016.1 hPa | 0 mm | - | 26 W/m² | - |
| 1788003468 | 10.56° C | 99% | 1015.8 hPa | 0 mm | - | 24 W/m² | - |
| 1788003168 | 10.56° C | 99% | 1015.9 hPa | 0 mm | - | 21 W/m² | - |
| 1788002862 | 10.56° C | 99% | 1016.1 hPa | 0 mm | - | 19 W/m² | - |
| 1788002558 | 10° C | 99% | 1015.8 hPa | 0 mm | - | 15 W/m² | - |
* Rain latest hour (hover to see other rain measurements)
** Current wind speed in m/s (hover to see current wind gust speed)